IRIDIUM 74 [-]

Last updated on June 15, 2017, 12:17 a.m. UTC

1 25345U 98032D   17162.54796321 -.09071452 -21083-5 -59847-4 0  9992
2 25345  86.4257 226.3531 0170155 339.6866  19.6941 16.25227347  1960

Satellite is not in orbit.